sat.trackr.live / text

‹ back to catalog

UNKNOWN

NORAD 81693

UNKNOWN UNKNOWN UNKNOWN

§ Identity

Operator
Country
Launch date
Launch site
Launch vehicle
Mass (kg)
RCS (m²)

External: N2YO · Heavens-Above

§ Orbital elements

Epoch: 2026-08-23T08:55:40.701504Z

Period
117.43 min
Inclination
101.1206°
Eccentricity
0.0372464
Mean motion
12.26233479 rev/d
Perigee alt
1,269.6 km
Apogee alt
1,861.4 km
Semi-major
7,943.6 km
B*
2.4024e-3
RAAN
274.3301°
Arg perigee
325.3086°
Mean anomaly
32.4186°
Rev number
99,885

§ Raw data

UNKNOWN1 81693U          26235.37199886  .00000298  00000+0  24024-2 0  99982 81693 101.1206 274.3301 0372464 325.3086  32.4186 12.26233479998855

JSON: /api/v1/satellites/81693 · /tle

For live sub-satellite position, see the globe view (requires WebGL).

§ Visibility from observer

Set your observer location to see the next 7 days of passes ≥ 10°. The values pass through the URL so the page stays shareable.

No JS? Fill the form by hand. The geolocation button needs JavaScript.